Terminal Aerodrome Forecast
Issued by NWS Dodge City, KS

Home | Current Version | Previous Version | Text Only | Print | Product List | Glossary On
Versions: 1 2 3 4 5 6 7 8 9 10 11 12 13 14 15 16 17 18 19 20 21 22 23 24 25 26 27 28 29 30 31 32 33 34 35 36 37 38 39 40 41 42 43 44 45 46 47
000
FTUS43 KDDC 221720
TAFDDC
TAF
KDDC 221720Z 2218/2318 18015KT P6SM SCT100
     FM222300 17011KT P6SM VCTS BKN050CB
     FM230300 17010KT P6SM FEW100
     FM231200 17005KT 4SM BR FEW100=

USA.gov is the U.S. government's official web portal to all federal, state and local government web resources and services.